Location: Arrakis Observatory
(44.1122°N, 95.7153°W)
Time: 15:18:08
(UTC-05:00)

Iridium 35 - Visible Passes

Search period start: 30 September 2016 00:00
Search period end: 10 October 2016 00:00
Orbit: 776 x 779 km, 86.4° (Epoch: 29 September)

Date Brightness Start Highest point End Pass type
(mag) Time Alt. Az. Time Alt. Az. Time Alt. Az.
30 Sep 6.9 04:25:25 10° SE 04:29:45 27° E 04:34:05 10° NNE visible
30 Sep 5.5 06:05:28 10° SSW 06:10:17 37° W 06:15:08 10° NNW visible
01 Oct 7.7 03:53:34 10° ESE 03:56:32 16° ENE 03:59:32 10° NE visible
01 Oct 4.9 05:32:29 16° SSW 05:36:38 67° W 05:41:51 10° N visible
02 Oct 5.2 05:00:14 27° SSE 05:03:07 69° E 05:08:19 10° N visible
02 Oct 6.6 06:41:22 10° WSW 06:44:23 15° WNW 06:47:26 10° NW visible
03 Oct 6.3 04:27:48 28° SE 04:29:43 38° E 04:34:31 10° NNE visible
03 Oct 5.9 06:08:21 20° WSW 06:10:32 27° WNW 06:14:56 10° NNW visible
04 Oct 7.2 03:55:15 20° E 03:56:26 22° E 04:00:22 10° NNE visible
04 Oct 5.2 05:35:46 41° WSW 05:36:48 47° W 05:41:51 10° N visible
05 Oct 7.8 03:22:35 12° E 03:23:18 12° ENE 03:25:18 10° NE visible
05 Oct 4.8 05:03:07 83° WSW 05:03:13 84° W 05:08:28 10° N visible
05 Oct 6.9 06:43:40 10° W 06:44:47 11° WNW 06:45:55 10° NW visible
06 Oct 5.7 04:30:22 51° ENE 04:30:22 51° ENE 04:34:50 10° NNE visible
06 Oct 6.3 06:10:53 19° WNW 06:10:53 19° WNW 06:14:32 10° NNW visible
07 Oct 6.9 03:57:33 28° ENE 03:57:33 28° ENE 04:00:55 10° NNE visible
07 Oct 5.9 05:38:04 30° NW 05:38:04 30° NW 05:41:44 10° NNW visible
08 Oct 7.6 03:24:41 16° ENE 03:24:41 16° ENE 03:26:32 10° NE visible
08 Oct 5.9 05:05:12 38° NNW 05:05:12 38° NNW 05:08:32 10° N visible
09 Oct 6.4 04:32:16 32° N 04:32:16 32° N 04:35:03 10° N visible
09 Oct 6.9 06:12:47 12° NW 06:12:47 12° NW 06:13:46 10° NW visible
